| time (UTC) | temp F | wind direction | speed MPH | gust MPH | rain 1hr in | rain 24hr in | rain mn in | humidity % | barometer mb |
| 20260902155501 | 59 | 11 | 5.0 | 14.0 | 0.00 | 0.00 | 0.00 | 69 | 1021.7 |
| 20260902155101 | 58 | 218 | 5.0 | 14.0 | 0.00 | 0.00 | 0.00 | 68 | 1021.7 |
| 20260902154601 | 57 | 293 | 3.0 | 13.0 | 0.00 | 0.00 | 0.00 | 70 | 1021.6 |
| 20260902154058 | 57 | 70 | 4.0 | 13.0 | 0.00 | 0.00 | 0.00 | 70 | 1021.6 |
| 20260902153558 | 57 | 30 | 7.0 | 13.0 | 0.00 | 0.00 | 0.00 | 69 | 1021.7 |
| 20260902153058 | 56 | 301 | 4.0 | 11.0 | 0.00 | 0.00 | 0.00 | 71 | 1021.7 |
| 20260902152557 | 56 | 33 | 3.0 | 9.0 | 0.00 | 0.00 | 0.00 | 72 | 1021.7 |
| 20260902152056 | 56 | 52 | 4.0 | 9.0 | 0.00 | 0.00 | 0.00 | 72 | 1021.7 |
| 20260902151604 | 56 | 349 | 4.0 | 9.0 | 0.00 | 0.00 | 0.00 | 72 | 1021.8 |
| 20260902151056 | 56 | 315 | 1.0 | 7.0 | 0.00 | 0.00 | 0.00 | 73 | 1021.8 |
| 20260902150601 | 57 | 63 | 3.0 | 9.0 | 0.00 | 0.00 | 0.00 | 74 | 1021.7 |
| 20260902150056 | 56 | 335 | 2.0 | 9.0 | 0.00 | 0.00 | 0.00 | 73 | 1021.8 |
| 20260902145555 | 56 | 324 | 5.0 | 8.0 | 0.00 | 0.00 | 0.00 | 75 | 1021.7 |
| 20260902145055 | 56 | 335 | 1.0 | 7.0 | 0.00 | 0.00 | 0.00 | 75 | 1021.7 |
| 20260902144556 | 56 | 309 | 2.0 | 10.0 | 0.00 | 0.00 | 0.00 | 74 | 1021.8 |
| 20260902144056 | 56 | 303 | 3.0 | 12.0 | 0.00 | 0.00 | 0.00 | 74 | 1021.8 |
| 20260902143556 | 56 | 255 | 2.0 | 13.0 | 0.00 | 0.00 | 0.00 | 74 | 1021.8 |
| 20260902143056 | 57 | 360 | 5.0 | 13.0 | 0.00 | 0.00 | 0.00 | 74 | 1021.9 |
| 20260902142556 | 57 | 83 | 4.0 | 13.0 | 0.00 | 0.00 | 0.00 | 74 | 1021.8 |
| 20260902142056 | 57 | 29 | 6.0 | 13.0 | 0.00 | 0.00 | 0.00 | 73 | 1021.9 |
| 20260902141556 | 56 | 322 | 4.0 | 10.0 | 0.00 | 0.00 | 0.00 | 74 | 1022.0 |
| 20260902141055 | 56 | 304 | 3.0 | 10.0 | 0.00 | 0.00 | 0.00 | 74 | 1021.9 |
| 20260902140555 | 56 | 351 | 2.0 | 12.0 | 0.00 | 0.00 | 0.00 | 72 | 1021.9 |
| 20260902140054 | 56 | 10 | 4.0 | 9.0 | 0.00 | 0.00 | 0.00 | 71 | 1021.9 |
| 20260902135553 | 56 | 39 | 1.0 | 9.0 | 0.00 | 0.00 | 0.00 | 72 | 1022.0 |
| 20260902135053 | 56 | 21 | 4.0 | 9.0 | 0.00 | 0.00 | 0.00 | 70 | 1022.0 |
| 20260902134553 | 56 | 23 | 3.0 | 10.0 | 0.00 | 0.00 | 0.00 | 70 | 1022.0 |
| 20260902134053 | 56 | 23 | 4.0 | 10.0 | 0.00 | 0.00 | 0.00 | 70 | 1022.0 |
| 20260902133552 | 56 | 352 | 4.0 | 12.0 | 0.00 | 0.00 | 0.00 | 71 | 1022.0 |
| 20260902133103 | 56 | 29 | 4.0 | 12.0 | 0.00 | 0.00 | 0.00 | 69 | 1021.9 |
| 20260902132552 | 56 | 50 | 5.0 | 12.0 | 0.00 | 0.00 | 0.00 | 70 | 1022.0 |
| 20260902132050 | 56 | 5 | 6.0 | 12.0 | 0.00 | 0.00 | 0.00 | 71 | 1022.0 |
| 20260902131552 | 56 | 345 | 2.0 | 9.0 | 0.00 | 0.00 | 0.00 | 71 | 1022.0 |
| 20260902131050 | 56 | 313 | 4.0 | 9.0 | 0.00 | 0.00 | 0.00 | 72 | 1021.9 |
| 20260902130550 | 56 | 320 | 2.0 | 11.0 | 0.00 | 0.00 | 0.00 | 72 | 1022.0 |
| 20260902130050 | 56 | 298 | 7.0 | 11.0 | 0.00 | 0.00 | 0.00 | 72 | 1022.0 |
| 20260902125549 | 56 | 39 | 3.0 | 9.0 | 0.00 | 0.00 | 0.00 | 73 | 1022.0 |
| 20260902125052 | 56 | 40 | 4.0 | 9.0 | 0.00 | 0.00 | 0.00 | 73 | 1022.0 |
| 20260902124548 | 56 | 269 | 0.0 | 7.0 | 0.00 | 0.00 | 0.00 | 74 | 1021.9 |
| 20260902124047 | 56 | 272 | 0.0 | 7.0 | 0.00 | 0.00 | 0.00 | 74 | 1021.9 |
| 20260902123547 | 56 | 43 | 3.0 | 10.0 | 0.00 | 0.00 | 0.00 | 74 | 1021.8 |
| 20260902123049 | 56 | 207 | 5.0 | 10.0 | 0.00 | 0.00 | 0.00 | 75 | 1021.8 |
| 20260902122546 | 55 | 6 | 4.0 | 10.0 | 0.00 | 0.00 | 0.00 | 76 | 1021.7 |
| 20260902122044 | 55 | 83 | 2.0 | 10.0 | 0.00 | 0.00 | 0.00 | 77 | 1021.7 |
| 20260902121545 | 55 | 36 | 4.0 | 10.0 | 0.00 | 0.00 | 0.00 | 78 | 1021.7 |
| 20260902121044 | 54 | 46 | 4.0 | 8.0 | 0.00 | 0.00 | 0.00 | 81 | 1021.6 |
| 20260902120544 | 54 | 52 | 2.0 | 6.0 | 0.00 | 0.00 | 0.00 | 83 | 1021.6 |
| 20260902120046 | 54 | 57 | 0.0 | 5.0 | 0.00 | 0.00 | 0.00 | 83 | 1021.6 |
| 20260902115543 | 54 | 85 | 1.0 | 9.0 | 0.00 | 0.00 | 0.00 | 82 | 1021.5 |
| 20260902115044 | 55 | 20 | 3.0 | 9.0 | 0.00 | 0.00 | 0.00 | 82 | 1021.6 |
| 20260902114552 | 54 | 51 | 2.0 | 6.0 | 0.00 | 0.00 | 0.00 | 81 | 1021.6 |
| 20260902114045 | 54 | 24 | 3.0 | 6.0 | 0.00 | 0.00 | 0.00 | 81 | 1021.7 |
| 20260902113546 | 54 | 189 | 1.0 | 14.0 | 0.00 | 0.00 | 0.00 | 81 | 1021.7 |
| 20260902113045 | 54 | 83 | 5.0 | 14.0 | 0.00 | 0.00 | 0.00 | 81 | 1021.9 |
| 20260902112544 | 55 | 46 | 2.0 | 10.0 | 0.00 | 0.00 | 0.00 | 81 | 1021.7 |
| 20260902112046 | 55 | 50 | 3.0 | 8.0 | 0.00 | 0.00 | 0.00 | 80 | 1021.6 |
| 20260902111547 | 55 | 356 | 2.0 | 8.0 | 0.00 | 0.00 | 0.00 | 80 | 1021.6 |
| 20260902111042 | 55 | 37 | 2.0 | 9.0 | 0.00 | 0.00 | 0.00 | 79 | 1021.5 |
| 20260902110542 | 55 | 335 | 3.0 | 9.0 | 0.00 | 0.00 | 0.00 | 78 | 1021.4 |
| 20260902110057 | 55 | 317 | 3.0 | 9.0 | 0.00 | 0.00 | 0.00 | 79 | 1021.4 |
| 20260902105540 | 55 | 331 | 0.0 | 4.0 | 0.00 | 0.00 | 0.00 | 78 | 1021.3 |
| 20260902105041 | 55 | 20 | 0.0 | 7.0 | 0.00 | 0.00 | 0.00 | 77 | 1021.3 |
| 20260902104541 | 55 | 266 | 2.0 | 8.0 | 0.00 | 0.00 | 0.00 | 77 | 1021.4 |
| 20260902104041 | 55 | 352 | 2.0 | 8.0 | 0.00 | 0.00 | 0.00 | 77 | 1021.3 |
| 20260902103539 | 55 | 335 | 0.0 | 8.0 | 0.00 | 0.00 | 0.00 | 77 | 1021.3 |
| 20260902103041 | 55 | 349 | 1.0 | 8.0 | 0.00 | 0.00 | 0.00 | 77 | 1021.3 |
| 20260902102542 | 55 | 335 | 2.0 | 6.0 | 0.00 | 0.00 | 0.00 | 77 | 1021.2 |
| 20260902102038 | 55 | 46 | 3.0 | 6.0 | 0.00 | 0.00 | 0.00 | 78 | 1021.3 |
| 20260902101540 | 54 | 271 | 2.0 | 7.0 | 0.00 | 0.00 | 0.00 | 78 | 1021.2 |
| 20260902101036 | 54 | 37 | 2.0 | 7.0 | 0.00 | 0.00 | 0.00 | 79 | 1021.3 |
| 20260902100541 | 54 | 61 | 2.0 | 8.0 | 0.00 | 0.00 | 0.00 | 79 | 1021.2 |
| 20260902100036 | 54 | 43 | 3.0 | 8.0 | 0.00 | 0.00 | 0.00 | 79 | 1021.2 |
| 20260902095537 | 54 | 299 | 0.0 | 6.0 | 0.00 | 0.00 | 0.00 | 79 | 1021.2 |
| 20260902095034 | 54 | 329 | 1.0 | 6.0 | 0.00 | 0.00 | 0.00 | 79 | 1021.0 |
| 20260902094542 | 54 | 295 | 3.0 | 8.0 | 0.00 | 0.00 | 0.00 | 79 | 1020.9 |
| 20260902094035 | 54 | 327 | 2.0 | 8.0 | 0.00 | 0.00 | 0.00 | 79 | 1020.8 |
| 20260902093536 | 54 | 359 | 0.0 | 7.0 | 0.00 | 0.00 | 0.00 | 79 | 1020.9 |
| 20260902093034 | 54 | 340 | 4.0 | 8.0 | 0.00 | 0.00 | 0.00 | 80 | 1020.8 |
| 20260902092533 | 54 | 74 | 0.0 | 6.0 | 0.00 | 0.00 | 0.00 | 81 | 1020.7 |
| 20260902092036 | 54 | 24 | 2.0 | 8.0 | 0.00 | 0.00 | 0.00 | 81 | 1020.7 |
| 20260902091532 | 54 | 340 | 0.0 | 7.0 | 0.00 | 0.00 | 0.00 | 80 | 1020.6 |
| 20260902091032 | 55 | 49 | 1.0 | 8.0 | 0.00 | 0.00 | 0.00 | 80 | 1020.5 |
| 20260902090532 | 55 | 6 | 1.0 | 8.0 | 0.00 | 0.00 | 0.00 | 80 | 1020.5 |
| 20260902090031 | 55 | 31 | 1.0 | 11.0 | 0.00 | 0.00 | 0.00 | 80 | 1020.4 |
| 20260902085530 | 55 | 14 | 5.0 | 11.0 | 0.00 | 0.00 | 0.00 | 81 | 1020.4 |
| 20260902085030 | 55 | 63 | 3.0 | 11.0 | 0.00 | 0.00 | 0.00 | 82 | 1020.3 |
| 20260902084538 | 55 | 311 | 3.0 | 10.0 | 0.00 | 0.00 | 0.00 | 83 | 1020.1 |
| 20260902084031 | 55 | 359 | 2.0 | 9.0 | 0.00 | 0.00 | 0.00 | 83 | 1020.1 |
| 20260902083531 | 55 | 38 | 3.0 | 10.0 | 0.00 | 0.00 | 0.00 | 82 | 1020.0 |
| 20260902083028 | 54 | 63 | 3.0 | 8.0 | 0.00 | 0.00 | 0.00 | 81 | 1020.1 |
| 20260902082531 | 54 | 345 | 4.0 | 8.0 | 0.00 | 0.00 | 0.00 | 81 | 1020.0 |
| 20260902082027 | 54 | 42 | 1.0 | 5.0 | 0.00 | 0.00 | 0.00 | 81 | 1020.0 |
| 20260902081527 | 54 | 5 | 0.0 | 7.0 | 0.00 | 0.00 | 0.00 | 81 | 1020.0 |
| 20260902081027 | 54 | 317 | 2.0 | 7.0 | 0.00 | 0.00 | 0.00 | 81 | 1020.0 |
| 20260902080527 | 54 | 59 | 1.0 | 5.0 | 0.00 | 0.00 | 0.00 | 81 | 1019.9 |
| 20260902080027 | 54 | 24 | 2.0 | 6.0 | 0.00 | 0.00 | 0.00 | 81 | 1019.9 |
| 20260902075526 | 54 | 335 | 1.0 | 6.0 | 0.00 | 0.00 | 0.00 | 81 | 1019.8 |
| 20260902075025 | 54 | 33 | 1.0 | 7.0 | 0.00 | 0.00 | 0.00 | 81 | 1019.7 |
| 20260902074525 | 55 | 22 | 2.0 | 6.0 | 0.00 | 0.00 | 0.00 | 82 | 1019.6 |
| 20260902074025 | 55 | 352 | 2.0 | 6.0 | 0.00 | 0.00 | 0.00 | 82 | 1019.6 |
| 20260902073524 | 55 | 42 | 0.0 | 6.0 | 0.00 | 0.00 | 0.00 | 82 | 1019.6 |
| 20260902073024 | 55 | 340 | 1.0 | 6.0 | 0.00 | 0.00 | 0.00 | 82 | 1019.6 |
| 20260902072525 | 55 | 355 | 1.0 | 6.0 | 0.00 | 0.00 | 0.00 | 83 | 1019.6 |
| 20260902072024 | 55 | 2 | 2.0 | 5.0 | 0.00 | 0.00 | 0.00 | 83 | 1019.7 |
| 20260902071533 | 55 | 328 | 0.0 | 6.0 | 0.00 | 0.00 | 0.00 | 83 | 1019.7 |
| 20260902071026 | 55 | 25 | 1.0 | 6.0 | 0.00 | 0.00 | 0.00 | 83 | 1019.6 |
| 20260902070522 | 55 | 308 | 3.0 | 6.0 | 0.00 | 0.00 | 0.00 | 84 | 1019.6 |
| 20260902070024 | 55 | 20 | 1.0 | 5.0 | 0.00 | 0.00 | 0.00 | 85 | 1019.6 |
| 20260902065521 | 55 | 22 | 1.0 | 6.0 | 0.00 | 0.00 | 0.00 | 85 | 1019.5 |
| 20260902065021 | 55 | 39 | 0.0 | 8.0 | 0.00 | 0.00 | 0.00 | 86 | 1019.5 |
| 20260902064525 | 55 | 302 | 2.0 | 6.0 | 0.00 | 0.00 | 0.00 | 87 | 1019.5 |
| 20260902064021 | 55 | 301 | 2.0 | 6.0 | 0.00 | 0.00 | 0.00 | 87 | 1019.5 |
| 20260902063520 | 55 | 47 | 1.0 | 6.0 | 0.00 | 0.00 | 0.00 | 87 | 1019.4 |
| 20260902063030 | 55 | 335 | 0.0 | 5.0 | 0.00 | 0.00 | 0.00 | 87 | 1019.4 |
| 20260902062521 | 54 | 14 | 0.0 | 5.0 | 0.00 | 0.00 | 0.00 | 87 | 1019.3 |
| 20260902062021 | 54 | 6 | 0.0 | 6.0 | 0.00 | 0.00 | 0.00 | 88 | 1019.3 |
| 20260902061530 | 54 | 16 | 2.0 | 6.0 | 0.00 | 0.00 | 0.00 | 88 | 1019.2 |
| 20260902061017 | 54 | 349 | 0.0 | 4.0 | 0.00 | 0.00 | 0.00 | 88 | 1019.2 |
| 20260902060516 | 54 | 20 | 1.0 | 6.0 | 0.00 | 0.00 | 0.00 | 89 | 1019.1 |
| 20260902060018 | 54 | 41 | 2.0 | 6.0 | 0.00 | 0.00 | 0.00 | 90 | 1019.1 |
| 20260902055516 | 54 | 74 | 0.0 | 6.0 | 0.00 | 0.00 | 0.00 | 90 | 1019.0 |
| 20260902055016 | 54 | 59 | 1.0 | 5.0 | 0.00 | 0.00 | 0.00 | 91 | 1019.0 |
| 20260902054520 | 54 | 350 | 1.0 | 4.0 | 0.00 | 0.00 | 0.00 | 91 | 1019.0 |
| 20260902054015 | 54 | 64 | 1.0 | 4.0 | 0.00 | 0.00 | 0.00 | 91 | 1019.0 |
| 20260902053514 | 54 | 24 | 0.0 | 4.0 | 0.00 | 0.00 | 0.00 | 91 | 1018.9 |
| 20260902053021 | 54 | 319 | 0.0 | 5.0 | 0.00 | 0.00 | 0.00 | 91 | 1018.9 |
| 20260902052516 | 54 | 352 | 1.0 | 5.0 | 0.00 | 0.00 | 0.00 | 91 | 1018.9 |
| 20260902052012 | 53 | 340 | 0.0 | 1.0 | 0.00 | 0.00 | 0.00 | 91 | 1018.8 |
| 20260902051511 | 53 | 340 | 0.0 | 1.0 | 0.00 | 0.00 | 0.00 | 91 | 1018.7 |
| 20260902051010 | 53 | 340 | 0.0 | 1.0 | 0.00 | 0.00 | 0.00 | 90 | 1018.8 |
| 20260902050511 | 53 | 340 | 0.0 | 1.0 | 0.00 | 0.00 | 0.00 | 90 | 1018.8 |
| 20260902050013 | 53 | 340 | 0.0 | 1.0 | 0.00 | 0.00 | 0.00 | 90 | 1018.7 |
| 20260902045508 | 53 | 340 | 0.0 | 5.0 | 0.00 | 0.00 | 0.00 | 91 | 1018.7 |
| 20260902045010 | 53 | 340 | 0.0 | 5.0 | 0.00 | 0.00 | 0.00 | 91 | 1018.8 |
| 20260902044507 | 53 | 284 | 1.0 | 7.0 | 0.00 | 0.00 | 0.00 | 91 | 1018.8 |
| 20260902044009 | 53 | 284 | 2.0 | 7.0 | 0.00 | 0.00 | 0.00 | 91 | 1018.8 |
| 20260902043508 | 52 | 285 | 2.0 | 5.0 | 0.00 | 0.00 | 0.00 | 92 | 1018.9 |
| 20260902043007 | 52 | 264 | 0.0 | 0.0 | 0.00 | 0.00 | 0.00 | 91 | 1018.8 |
| 20260902042507 | 52 | 264 | 0.0 | 0.0 | 0.00 | 0.00 | 0.00 | 91 | 1018.7 |
| 20260902042007 | 52 | 264 | 0.0 | 1.0 | 0.00 | 0.00 | 0.00 | 91 | 1018.7 |
| 20260902041507 | 52 | 264 | 0.0 | 2.0 | 0.00 | 0.00 | 0.00 | 91 | 1018.6 |
| 20260902041007 | 52 | 264 | 0.0 | 0.0 | 0.00 | 0.00 | 0.00 | 91 | 1018.6 |
| 20260902040507 | 52 | 264 | 0.0 | 1.0 | 0.00 | 0.00 | 0.00 | 91 | 1018.6 |
| 20260902040006 | 52 | 264 | 0.0 | 1.0 | 0.00 | 0.00 | 0.00 | 91 | 1018.7 |
| 20260902035506 | 52 | 264 | 0.0 | 0.0 | 0.00 | 0.00 | 0.00 | 91 | 1018.7 |
| 20260902035006 | 52 | 264 | 0.0 | 1.0 | 0.00 | 0.00 | 0.00 | 90 | 1018.7 |
| 20260902034506 | 52 | 264 | 0.0 | 2.0 | 0.00 | 0.00 | 0.00 | 90 | 1018.8 |
| 20260902034006 | 52 | 264 | 0.0 | 2.0 | 0.00 | 0.00 | 0.00 | 90 | 1018.8 |
| 20260902033507 | 52 | 264 | 0.0 | 4.0 | 0.00 | 0.00 | 0.00 | 90 | 1018.8 |
| 20260902033010 | 52 | 270 | 0.0 | 5.0 | 0.00 | 0.00 | 0.00 | 91 | 1018.8 |
| 20260902032509 | 52 | 11 | 0.0 | 5.0 | 0.00 | 0.00 | 0.00 | 91 | 1018.7 |
| 20260902032004 | 52 | 267 | 0.0 | 0.0 | 0.00 | 0.00 | 0.00 | 91 | 1018.7 |
| 20260902031504 | 52 | 267 | 0.0 | 0.0 | 0.00 | 0.00 | 0.00 | 90 | 1018.6 |
| 20260902031004 | 52 | 253 | 0.0 | 0.0 | 0.00 | 0.00 | 0.00 | 90 | 1018.6 |
| 20260902030504 | 52 | 253 | 0.0 | 0.0 | 0.00 | 0.00 | 0.00 | 90 | 1018.6 |
| 20260902030004 | 52 | 253 | 0.0 | 2.0 | 0.00 | 0.00 | 0.00 | 90 | 1018.6 |
| 20260902025504 | 52 | 253 | 0.0 | 2.0 | 0.00 | 0.00 | 0.00 | 90 | 1018.6 |
| 20260902025004 | 52 | 257 | 0.0 | 0.0 | 0.00 | 0.00 | 0.00 | 89 | 1018.6 |
| 20260902024503 | 52 | 257 | 0.0 | 0.0 | 0.00 | 0.00 | 0.00 | 89 | 1018.6 |
| 20260902024001 | 52 | 257 | 0.0 | 0.0 | 0.00 | 0.00 | 0.00 | 89 | 1018.6 |
| 20260902023600 | 52 | 257 | 0.0 | 0.0 | 0.00 | 0.00 | 0.00 | 89 | 1018.5 |
| 20260902023502 | 52 | 257 | 0.0 | 0.0 | 0.00 | 0.00 | 0.00 | 89 | 1018.6 |
| 20260902023103 | 53 | 257 | 0.0 | 0.0 | 0.00 | 0.00 | 0.00 | 89 | 1018.6 |
| 20260902022559 | 53 | 257 | 0.0 | 0.0 | 0.00 | 0.00 | 0.00 | 89 | 1018.6 |
| 20260902022058 | 53 | 257 | 0.0 | 0.0 | 0.00 | 0.00 | 0.00 | 89 | 1018.6 |
| 20260902021608 | 54 | 257 | 0.0 | 4.0 | 0.00 | 0.00 | 0.00 | 89 | 1018.5 |
| 20260902021059 | 54 | 257 | 1.0 | 4.0 | 0.00 | 0.00 | 0.00 | 89 | 1018.5 |
| 20260902020559 | 54 | 289 | 0.0 | 3.0 | 0.00 | 0.00 | 0.00 | 89 | 1018.4 |
| 20260902020104 | 54 | 289 | 1.0 | 4.0 | 0.00 | 0.00 | 0.00 | 88 | 1018.4 |
| 20260902015601 | 54 | 286 | 1.0 | 4.0 | 0.00 | 0.00 | 0.00 | 88 | 1018.5 |
| 20260902015058 | 54 | 255 | 0.0 | 4.0 | 0.00 | 0.00 | 0.00 | 88 | 1018.4 |
| 20260902014600 | 54 | 10 | 0.0 | 2.0 | 0.00 | 0.00 | 0.00 | 85 | 1018.6 |
| 20260902013558 | 54 | 281 | 0.0 | 2.0 | 0.00 | 0.00 | 0.00 | 84 | 1018.4 |
| 20260902013058 | 54 | 329 | 0.0 | 0.0 | 0.00 | 0.00 | 0.00 | 83 | 1018.4 |
| 20260902012559 | 54 | 329 | 0.0 | 2.0 | 0.00 | 0.00 | 0.00 | 82 | 1018.3 |
| 20260902012058 | 54 | 329 | 0.0 | 1.0 | 0.00 | 0.00 | 0.00 | 82 | 1018.3 |
| 20260902011557 | 55 | 329 | 0.0 | 1.0 | 0.00 | 0.00 | 0.00 | 81 | 1018.3 |
| 20260902011058 | 55 | 335 | 0.0 | 6.0 | 0.00 | 0.00 | 0.00 | 81 | 1018.3 |
| 20260902010557 | 55 | 326 | 1.0 | 6.0 | 0.00 | 0.00 | 0.00 | 81 | 1018.3 |
| 20260902010057 | 55 | 345 | 0.0 | 2.0 | 0.00 | 0.00 | 0.00 | 81 | 1018.3 |
| 20260902005600 | 56 | 345 | 0.0 | 5.0 | 0.00 | 0.00 | 0.00 | 81 | 1018.4 |
| 20260902005057 | 56 | 352 | 1.0 | 5.0 | 0.00 | 0.00 | 0.00 | 82 | 1018.4 |
| 20260902004558 | 56 | 22 | 0.0 | 4.0 | 0.00 | 0.00 | 0.00 | 83 | 1018.4 |
| 20260902003556 | 56 | 290 | 3.0 | 6.0 | 0.00 | 0.00 | 0.00 | 83 | 1018.5 |
| 20260902003056 | 56 | 11 | 0.0 | 5.0 | 0.00 | 0.00 | 0.00 | 83 | 1018.5 |
| 20260902002557 | 56 | 32 | 1.0 | 5.0 | 0.00 | 0.00 | 0.00 | 83 | 1018.4 |
| 20260902002056 | 56 | 37 | 1.0 | 5.0 | 0.00 | 0.00 | 0.00 | 83 | 1018.4 |
| 20260902001556 | 56 | 51 | 1.0 | 5.0 | 0.00 | 0.00 | 0.00 | 82 | 1018.4 |
| 20260902001059 | 56 | 47 | 2.0 | 5.0 | 0.00 | 0.00 | 0.00 | 82 | 1018.4 |
| 20260902000555 | 56 | 56 | 0.0 | 8.0 | 0.00 | 0.00 | 0.00 | 82 | 1018.4 |
| 20260902000056 | 56 | 29 | 1.0 | 8.0 | 0.00 | 0.00 | 0.00 | 82 | 1018.3 |
| 20260901235558 | 56 | 101 | 0.0 | 6.0 | 0.00 | 0.00 | 0.00 | 82 | 1018.2 |
| 20260901235054 | 57 | 75 | 1.0 | 6.0 | 0.00 | 0.00 | 0.00 | 83 | 1018.2 |
| 20260901234605 | 57 | 2 | 1.0 | 7.0 | 0.00 | 0.00 | 0.00 | 83 | 1018.2 |
| 20260901233554 | 57 | 46 | 1.0 | 5.0 | 0.00 | 0.00 | 0.00 | 81 | 1018.1 |
| 20260901233053 | 57 | 75 | 1.0 | 13.0 | 0.00 | 0.00 | 0.00 | 81 | 1018.1 |
| 20260901232556 | 57 | 34 | 0.0 | 13.0 | 0.00 | 0.00 | 0.00 | 81 | 1018.0 |
| 20260901232053 | 57 | 26 | 4.0 | 9.0 | 0.00 | 0.00 | 0.00 | 81 | 1018.0 |
| 20260901231552 | 57 | 3 | 0.0 | 6.0 | 0.00 | 0.00 | 0.00 | 83 | 1017.9 |
| 20260901231051 | 57 | 50 | 2.0 | 6.0 | 0.00 | 0.00 | 0.00 | 83 | 1017.9 |
| 20260901230550 | 57 | 12 | 2.0 | 6.0 | 0.00 | 0.00 | 0.00 | 83 | 1017.8 |
| 20260901230050 | 57 | 78 | 1.0 | 7.0 | 0.00 | 0.00 | 0.00 | 83 | 1017.6 |
| 20260901225548 | 57 | 8 | 3.0 | 7.0 | 0.00 | 0.00 | 0.00 | 83 | 1017.6 |
| 20260901225048 | 57 | 64 | 1.0 | 7.0 | 0.00 | 0.00 | 0.00 | 83 | 1017.5 |
| 20260901224548 | 57 | 2 | 3.0 | 7.0 | 0.00 | 0.00 | 0.00 | 83 | 1017.4 |
| 20260901223548 | 57 | 353 | 1.0 | 8.0 | 0.00 | 0.00 | 0.00 | 83 | 1017.3 |
| 20260901223047 | 57 | 10 | 3.0 | 7.0 | 0.00 | 0.00 | 0.00 | 83 | 1017.2 |
| 20260901222546 | 57 | 297 | 3.0 | 8.0 | 0.00 | 0.00 | 0.00 | 82 | 1017.1 |
| 20260901222045 | 57 | 54 | 2.0 | 8.0 | 0.00 | 0.00 | 0.00 | 82 | 1017.1 |
| 20260901221614 | 57 | 59 | 4.0 | 7.0 | 0.00 | 0.00 | 0.00 | 82 | 1017.0 |
| 20260901221045 | 57 | 45 | 2.0 | 9.0 | 0.00 | 0.00 | 0.00 | 83 | 1017.0 |
| 20260901220545 | 57 | 12 | 4.0 | 9.0 | 0.00 | 0.00 | 0.00 | 84 | 1017.0 |
| 20260901220044 | 57 | 335 | 2.0 | 8.0 | 0.00 | 0.00 | 0.00 | 84 | 1016.9 |
| 20260901215544 | 57 | 40 | 3.0 | 8.0 | 0.00 | 0.00 | 0.00 | 84 | 1016.8 |
| 20260901215048 | 57 | 37 | 3.0 | 8.0 | 0.00 | 0.00 | 0.00 | 84 | 1016.9 |
| 20260901214543 | 57 | 5 | 3.0 | 8.0 | 0.00 | 0.00 | 0.00 | 83 | 1016.8 |
| 20260901213544 | 57 | 20 | 2.0 | 10.0 | 0.00 | 0.00 | 0.00 | 83 | 1016.7 |
| 20260901213100 | 57 | 39 | 2.0 | 10.0 | 0.00 | 0.00 | 0.00 | 83 | 1016.7 |
| 20260901212542 | 57 | 38 | 0.0 | 6.0 | 0.00 | 0.00 | 0.00 | 83 | 1016.6 |
| 20260901212042 | 57 | 64 | 3.0 | 6.0 | 0.00 | 0.00 | 0.00 | 83 | 1016.6 |
| 20260901211545 | 57 | 43 | 1.0 | 9.0 | 0.00 | 0.00 | 0.00 | 84 | 1016.6 |
| 20260901211041 | 57 | 35 | 3.0 | 13.0 | 0.00 | 0.00 | 0.00 | 84 | 1016.6 |
| 20260901210541 | 57 | 32 | 4.0 | 12.0 | 0.00 | 0.00 | 0.00 | 84 | 1016.6 |
| 20260901210041 | 57 | 312 | 4.0 | 9.0 | 0.00 | 0.00 | 0.00 | 83 | 1016.5 |
| 20260901205542 | 57 | 31 | 2.0 | 12.0 | 0.00 | 0.00 | 0.00 | 84 | 1016.4 |
| 20260901205039 | 57 | 13 | 4.0 | 12.0 | 0.00 | 0.00 | 0.00 | 84 | 1016.4 |
| 20260901204538 | 57 | 28 | 4.0 | 9.0 | 0.00 | 0.00 | 0.00 | 84 | 1016.3 |
| 20260901203539 | 57 | 11 | 4.0 | 9.0 | 0.00 | 0.00 | 0.00 | 86 | 1016.3 |
| 20260901203044 | 57 | 24 | 1.0 | 6.0 | 0.00 | 0.00 | 0.00 | 87 | 1016.3 |
| 20260901202538 | 57 | 36 | 0.0 | 7.0 | 0.00 | 0.00 | 0.00 | 86 | 1016.2 |
| 20260901202038 | 57 | 16 | 4.0 | 12.0 | 0.00 | 0.00 | 0.00 | 85 | 1016.2 |
| 20260901201537 | 58 | 26 | 6.0 | 12.0 | 0.00 | 0.00 | 0.00 | 84 | 1016.3 |
| 20260901201037 | 58 | 40 | 4.0 | 12.0 | 0.00 | 0.00 | 0.00 | 83 | 1016.2 |
| 20260901200536 | 58 | 35 | 4.0 | 15.0 | 0.00 | 0.00 | 0.00 | 82 | 1016.2 |
| 20260901200049 | 59 | 323 | 6.0 | 15.0 | 0.00 | 0.00 | 0.00 | 82 | 1016.1 |
| 20260901195539 | 59 | 43 | 5.0 | 9.0 | 0.00 | 0.00 | 0.00 | 82 | 1016.0 |
| 20260901195038 | 59 | 1 | 3.0 | 11.0 | 0.00 | 0.00 | 0.00 | 80 | 1016.0 |
| 20260901194534 | 59 | 331 | 4.0 | 12.0 | 0.00 | 0.00 | 0.00 | 79 | 1015.8 |
| 20260901193533 | 59 | 64 | 2.0 | 11.0 | 0.00 | 0.00 | 0.00 | 80 | 1015.8 |
| 20260901193042 | 59 | 51 | 5.0 | 11.0 | 0.00 | 0.00 | 0.00 | 80 | 1015.7 |
| 20260901192536 | 59 | 335 | 3.0 | 8.0 | 0.00 | 0.00 | 0.00 | 81 | 1015.6 |
| 20260901192035 | 59 | 20 | 2.0 | 8.0 | 0.00 | 0.00 | 0.00 | 81 | 1015.6 |
| 20260901191533 | 59 | 10 | 2.0 | 11.0 | 0.00 | 0.00 | 0.00 | 82 | 1015.5 |
| 20260901191031 | 59 | 72 | 2.0 | 11.0 | 0.00 | 0.00 | 0.00 | 82 | 1015.5 |
| 20260901190533 | 59 | 281 | 3.0 | 11.0 | 0.00 | 0.00 | 0.00 | 83 | 1015.6 |
| 20260901190030 | 59 | 54 | 4.0 | 10.0 | 0.00 | 0.00 | 0.00 | 83 | 1015.5 |
| 20260901185530 | 58 | 349 | 2.0 | 13.0 | 0.00 | 0.00 | 0.00 | 84 | 1015.4 |
| 20260901185033 | 58 | 328 | 6.0 | 13.0 | 0.00 | 0.00 | 0.00 | 84 | 1015.4 |
| 20260901184533 | 59 | 33 | 5.0 | 13.0 | 0.00 | 0.00 | 0.00 | 84 | 1015.4 |
| 20260901183530 | 59 | 353 | 4.0 | 12.0 | 0.00 | 0.00 | 0.00 | 84 | 1015.2 |
| 20260901183028 | 59 | 17 | 5.0 | 12.0 | 0.00 | 0.00 | 0.00 | 84 | 1015.2 |
| 20260901182528 | 59 | 340 | 6.0 | 12.0 | 0.00 | 0.00 | 0.00 | 83 | 1015.1 |
| 20260901182027 | 60 | 18 | 4.0 | 10.0 | 0.00 | 0.00 | 0.00 | 83 | 1015.0 |
| 20260901181526 | 60 | 319 | 5.0 | 11.0 | 0.00 | 0.00 | 0.00 | 83 | 1015.0 |
| 20260901181026 | 60 | 33 | 4.0 | 11.0 | 0.00 | 0.00 | 0.00 | 83 | 1014.9 |
| 20260901180525 | 60 | 20 | 4.0 | 10.0 | 0.00 | 0.00 | 0.00 | 83 | 1014.9 |
| 20260901180026 | 60 | 6 | 5.0 | 10.0 | 0.00 | 0.00 | 0.00 | 81 | 1014.8 |
| 20260901175524 | 60 | 295 | 4.0 | 9.0 | 0.00 | 0.00 | 0.00 | 82 | 1014.7 |
| 20260901175025 | 59 | 284 | 3.0 | 12.0 | 0.00 | 0.00 | 0.00 | 83 | 1014.6 |
| 20260901174524 | 59 | 340 | 5.0 | 12.0 | 0.00 | 0.00 | 0.00 | 83 | 1014.7 |
| 20260901173527 | 58 | 1 | 1.0 | 11.0 | 0.00 | 0.00 | 0.00 | 87 | 1014.6 |
| 20260901173025 | 58 | 5 | 5.0 | 11.0 | 0.00 | 0.00 | 0.00 | 87 | 1014.6 |
| 20260901172525 | 58 | 29 | 0.0 | 7.0 | 0.00 | 0.00 | 0.00 | 88 | 1014.5 |
| 20260901172026 | 57 | 340 | 0.0 | 6.0 | 0.00 | 0.00 | 0.00 | 88 | 1014.6 |
| 20260901171528 | 57 | 46 | 2.0 | 7.0 | 0.00 | 0.00 | 0.00 | 87 | 1014.6 |
| 20260901171024 | 58 | 10 | 2.0 | 7.0 | 0.00 | 0.00 | 0.00 | 87 | 1014.6 |
| 20260901170524 | 58 | 47 | 1.0 | 11.0 | 0.00 | 0.00 | 0.00 | 86 | 1014.5 |
| 20260901170024 | 59 | 328 | 4.0 | 12.0 | 0.00 | 0.00 | 0.00 | 84 | 1014.5 |
| 20260901165524 | 61 | 39 | 6.0 | 13.0 | 0.00 | 0.00 | 0.00 | 81 | 1014.5 |
| 20260901165023 | 61 | 3 | 8.0 | 13.0 | 0.00 | 0.00 | 0.00 | 80 | 1014.4 |
| 20260901164523 | 61 | 229 | 2.0 | 10.0 | 0.00 | 0.00 | 0.00 | 80 | 1014.4 |
| 20260901163521 | 61 | 340 | 2.0 | 10.0 | 0.00 | 0.00 | 0.00 | 79 | 1014.3 |
| 20260901163021 | 61 | 286 | 4.0 | 11.0 | 0.00 | 0.00 | 0.00 | 79 | 1014.3 |
| 20260901162521 | 60 | 180 | 3.0 | 11.0 | 0.00 | 0.00 | 0.00 | 81 | 1014.3 |
| 20260901162021 | 60 | 133 | 2.0 | 12.0 | 0.00 | 0.00 | 0.00 | 79 | 1014.2 |
| 20260901161519 | 61 | 71 | 5.0 | 14.0 | 0.00 | 0.00 | 0.00 | 78 | 1014.2 |
| 20260901161019 | 62 | 49 | 5.0 | 13.0 | 0.00 | 0.00 | 0.00 | 78 | 1014.2 |
| 20260901160518 | 62 | 20 | 3.0 | 10.0 | 0.00 | 0.00 | 0.00 | 78 | 1014.1 |
| 20260901160022 | 62 | 27 | 3.0 | 10.0 | 0.00 | 0.00 | 0.00 | 78 | 1014.1 |